Station: Tasman Island  

  Atmospheric Gas Attenuation - ITU Rec 676-11   ----------------- dB/100km -----------------
Date Time Temp RH % AH g/m3 Dew Point Wind Direction Speed kph Gust kph Barometer mB Rainfall Since 9am 24GHz 47GHz 76GHz 122GHz 134GHz 241GHz
05/09 10:00 10.9 94 9.35 10 20 33 1001.1 0 21.4 27.6 43.9 115.5 111.5 384.1
05/09 09:50 11.2 94 9.53 10.3 19 26 1001.4 0 21.7 27.8 44.5 117.1 113.6 391.5
05/09 09:40 11 94 9.41 10.1 19 26 1001.6 0 21.5 27.6 44.1 116.1 112.3 386.7
05/09 09:30 10.8 93 9.19 9.7 19 24 1001.8 0 21.0 27.3 43.3 113.9 109.5 377.0
05/09 09:20 10.7 92 9.04 9.5 19 26 1002 0 20.7 27.1 42.7 112.4 107.5 370.2
05/09 09:10 10.5 92 8.92 9.3 19 26 1002.1 0 20.5 27.0 42.3 111.3 106.2 365.4
05/09 09:00 10.4 93 8.97 9.3 17 26 1002.3 0 20.6 27.1 42.6 112.1 107.0 368.3
05/09 08:50 10.3 92 8.81 9.1 17 24 1002.4 0 20.2 26.9 42.0 110.4 104.9 361.1
05/09 08:40 10.3 90 8.62 8.7 17 22 1002.8 0 19.8 26.6 41.2 108.3 102.4 352.0
05/09 08:30 10.2 90 8.57 8.6 15 22 1002.8 0 19.7 26.5 41.0 107.9 101.8 350.0
05/09 08:20 10.4 89 8.58 8.7 17 26 1003.1 0 19.7 26.5 41.0 107.8 101.7 349.7
05/09 08:10 10.5 86 8.34 8.3 17 26 1003 0 19.2 26.0 39.9 104.9 98.3 337.7
05/09 08:00 10.5 83 8.05 7.7 17 22 1003.2 0 18.6 25.6 38.8 101.8 94.4 324.1
05/09 07:50 10.3 86 8.24 8.1 17 24 1003.3 0 19.0 25.9 39.6 104.1 97.2 333.9
05/09 07:40 10.5 81 7.86 7.4 17 24 1003.3 0 18.2 25.3 38.0 99.7 91.8 315.2
05/09 07:30 10.4 81 7.81 7.3 11 24 1003.3 0 18.1 25.2 37.8 99.3 91.3 313.2
05/09 07:20 10.5 78 7.57 6.8 9 19 1003.4 0 17.5 24.8 36.8 96.6 88.0 301.7
05/09 07:10 10.2 81 7.71 7.1 11 20 1003.4 0 17.9 25.1 37.5 98.5 90.2 309.4
05/09 07:00 10.8 76 7.51 6.7 9 13 1003.2 0 17.4 24.6 36.4 95.6 86.8 297.7
05/09 06:50 11.2 69 7 5.7 6 13 1003.1 0 16.3 23.7 34.2 89.8 79.8 273.1
05/09 06:40 11.1 70 7.05 5.8 6 11 1003.2 0 16.4 23.8 34.5 90.4 80.6 275.7
05/09 06:30 10.9 71 7.06 5.9 9 15 1003.4 0 16.4 23.9 34.6 90.8 80.9 276.9
05/09 06:20 10.5 73 7.08 5.9 7 13 1003.1 0 16.5 24.0 34.9 91.4 81.6 279.2
05/09 06:10 10.3 76 7.28 6.3 6 13 1003.3 0 16.9 24.4 35.8 93.8 84.4 289.1
05/09 06:00 10.1 77 7.28 6.3 9 15 1003.6 0 16.9 24.4 35.9 94.0 84.6 289.9
05/09 05:50 10 77 7.24 6.2 7 20 1003.9 0 16.9 24.4 35.8 93.8 84.2 288.5
05/09 05:40 9.6 80 7.33 6.3 9 19 1004 0 17.1 24.7 36.3 95.2 85.9 294.2
05/09 05:30 9.7 81 7.47 6.6 11 17 1004 0 17.4 24.9 36.8 96.6 87.6 300.3
05/09 05:20 9.9 78 7.28 6.3 9 17 1004 0 16.9 24.5 36.0 94.3 84.9 290.7
05/09 05:10 9.9 78 7.28 6.3 9 17 1004.2 0 16.9 24.5 36.0 94.3 84.9 290.8
05/09 05:00 9.8 81 7.52 6.7 6 11 1004.3 0 17.5 24.9 37.0 97.0 88.2 302.3
05/09 04:50 10 80 7.52 6.7 9 17 1004.4 0 17.5 24.9 36.9 96.8 88.0 301.6
05/09 04:40 10.1 79 7.47 6.6 15 26 1004.3 0 17.3 24.8 36.6 96.1 87.2 298.8
05/09 04:30 10 78 7.33 6.3 13 24 1004.5 0 17.0 24.6 36.1 94.8 85.5 292.8
05/09 04:20 10.2 78 7.42 6.5 11 19 1004.5 0 17.2 24.7 36.4 95.5 86.4 296.2
05/09 04:10 10.1 78 7.38 6.4 15 26 1004.7 0 17.1 24.7 36.3 95.2 86.0 294.8
05/09 04:00 10.1 74 7 5.7 11 20 1004.4 0 16.3 24.0 34.8 91.1 81.0 277.3
05/09 03:50 10.1 73 6.9 5.5 13 20 1004.3 0 16.1 23.9 34.4 90.1 79.7 272.7
05/09 03:40 10 72 6.77 5.2 13 22 1004.3 0 15.8 23.7 33.9 88.8 78.1 267.2
05/09 03:30 9.9 72 6.72 5.1 11 19 1004.3 0 15.7 23.6 33.8 88.4 77.6 265.2
05/09 03:20 10 71 6.67 5 11 20 1004.4 0 15.6 23.5 33.5 87.8 76.9 262.7
05/09 03:10 9.9 72 6.72 5.1 11 20 1004.5 0 15.7 23.6 33.8 88.4 77.6 265.3
05/09 03:00 9.9 72 6.72 5.1 11 24 1004.7 0 15.7 23.7 33.8 88.5 77.6 265.3
05/09 02:50 10.1 72 6.81 5.3 11 22 1004.9 0 15.9 23.7 34.1 89.2 78.6 268.8
05/09 02:40 10.1 70 6.62 4.9 13 22 1005.2 0 15.5 23.5 33.3 87.2 76.2 260.3
05/09 02:30 10 71 6.67 5 13 20 1005.3 0 15.6 23.6 33.6 87.9 76.9 262.9
05/09 02:20 9.8 72 6.68 5 13 24 1005.4 0 15.7 23.6 33.7 88.2 77.3 264.0
05/09 02:10 9.8 72 6.68 5 15 24 1005.6 0 15.7 23.6 33.7 88.2 77.3 264.1
05/09 02:00 9.7 72 6.64 4.9 13 24 1005.7 0 15.6 23.6 33.6 87.9 76.9 262.6
05/09 01:50 9.8 71 6.59 4.8 17 26 1005.9 0 15.5 23.5 33.4 87.3 76.1 260.1
05/09 01:40 9.6 70 6.41 4.4 17 26 1006 0 15.1 23.3 32.8 85.7 74.0 252.6
05/09 01:30 9.7 70 6.46 4.5 17 26 1006.1 0 15.2 23.3 32.9 86.1 74.6 254.6
05/09 01:20 9.5 69 6.28 4.1 17 26 1006 0 14.8 23.1 32.3 84.5 72.5 247.1
05/09 01:10 9.1 70 6.21 3.9 15 22 1006 0 14.7 23.1 32.2 84.2 71.9 245.3
05/09 01:00 9.5 67 6.1 3.7 17 28 1006.1 0 14.4 22.8 31.6 82.6 70.2 239.2
05/09 00:50 9.8 66 6.13 3.8 17 24 1006.6 0 14.5 22.8 31.6 82.7 70.3 239.7
05/09 00:40 9.8 67 6.22 4 17 26 1006.7 0 14.7 23.0 32.0 83.6 71.5 243.7
05/09 00:30 9.7 66 6.09 3.7 17 24 1006.6 0 14.4 22.8 31.5 82.4 69.9 238.2
05/09 00:20 9.8 66 6.13 3.8 17 26 1006.6 0 14.5 22.8 31.6 82.7 70.3 239.7
05/09 00:10 9.6 67 6.14 3.8 19 28 1006.7 0 14.5 22.9 31.7 83.0 70.6 240.7
05/09 00:00 9.7 66 6.09 3.7 15 32 1006.7 0 14.4 22.8 31.5 82.4 69.9 238.2
04/09 23:50 9.9 65 6.07 3.6 17 28 1006.8 0 14.3 22.7 31.4 82.0 69.5 236.8
04/09 23:40 9.9 64 5.98 3.4 19 30 1006.7 0 14.2 22.6 31.0 81.0 68.4 232.8
04/09 23:30 9.7 65 5.99 3.4 17 28 1006.8 0 14.2 22.6 31.1 81.4 68.7 233.8
04/09 23:20 9.8 64 5.94 3.3 17 26 1006.8 0 14.1 22.5 30.9 80.7 68.0 231.3
04/09 23:10 9.9 64 5.98 3.4 17 32 1006.9 0 14.2 22.6 31.0 81.1 68.4 232.8
04/09 23:00 9.7 64 5.9 3.2 19 30 1007 0 14.0 22.5 30.8 80.5 67.6 229.9
04/09 22:50 9.8 64 5.94 3.3 17 30 1007 0 14.1 22.6 30.9 80.8 68.0 231.4
04/09 22:40 10 63 5.92 3.3 20 32 1007.1 0 14.0 22.5 30.8 80.4 67.5 229.9
04/09 22:30 9.9 64 5.98 3.4 19 30 1007.2 0 14.2 22.6 31.0 81.1 68.4 232.9
04/09 22:20 9.8 64 5.94 3.3 20 32 1007.2 0 14.1 22.6 30.9 80.8 68.0 231.4
04/09 22:10 9.9 64 5.98 3.4 24 35 1007.2 0 14.2 22.6 31.0 81.1 68.4 232.9
04/09 22:00 9.8 64 5.94 3.3 20 35 1007.1 0 14.1 22.6 30.9 80.8 68.0 231.4
04/09 21:50 9.8 64 5.94 3.3 19 32 1007.1 0 14.1 22.6 30.9 80.8 68.0 231.4
04/09 21:40 9.7 65 5.99 3.4 20 32 1007.1 0 14.2 22.7 31.1 81.4 68.7 233.9
04/09 21:30 9.5 66 6.01 3.5 17 26 1007.3 0 14.2 22.7 31.3 81.8 69.1 235.4
04/09 21:20 9.8 62 5.75 2.9 17 24 1007.2 0 13.7 22.3 30.2 78.9 65.6 223.1
04/09 21:10 9.8 62 5.75 2.9 17 28 1007.2 0 13.7 22.3 30.2 78.9 65.6 223.1
04/09 21:00 9.7 62 5.72 2.8 17 28 1007.3 0 13.6 22.3 30.1 78.7 65.3 222.1
04/09 20:50 9.8 62 5.75 2.9 17 26 1007.6 0 13.7 22.3 30.2 78.9 65.6 223.2
04/09 20:40 9.9 61 5.7 2.7 20 33 1007.3 0 13.6 22.2 30.0 78.3 64.9 220.7
04/09 20:30 10 62 5.83 3.1 20 32 1007.4 0 13.8 22.3 30.4 79.5 66.4 226.1
04/09 20:20 9.7 64 5.9 3.2 15 22 1007.3 0 14.0 22.5 30.8 80.5 67.6 230.0
04/09 20:10 9.8 64 5.94 3.3 17 26 1007.3 0 14.1 22.6 30.9 80.8 68.0 231.4
04/09 20:00 9.8 64 5.94 3.3 19 30 1007.5 0 14.1 22.6 30.9 80.8 68.0 231.5
04/09 19:50 9.7 64 5.9 3.2 17 22 1007.7 0 14.0 22.5 30.8 80.5 67.6 230.1
04/09 19:40 9.6 66 6.05 3.6 17 28 1008 0 14.3 22.8 31.4 82.2 69.6 237.0
04/09 19:30 10.3 60 5.75 2.9 17 24 1008 0 13.6 22.2 30.0 78.4 65.2 221.9
04/09 19:20 10.7 55 5.4 2 17 24 1007.9 0 12.9 21.6 28.6 74.6 60.6 205.8
04/09 19:10 10.7 55 5.4 2 17 24 1007.9 0 12.9 21.6 28.6 74.6 60.6 205.8
04/09 19:00 10.8 53 5.24 1.6 17 24 1007.8 0 12.5 21.3 28.0 72.9 58.6 198.7
04/09 18:50 10.8 53 5.24 1.6 17 22 1007.7 0 12.5 21.3 28.0 72.9 58.6 198.7
04/09 18:40 10.8 53 5.24 1.6 17 22 1007.6 0 12.5 21.3 28.0 72.9 58.6 198.7
04/09 18:30 11 51 5.11 1.3 17 24 1007.7 0 12.3 21.0 27.4 71.5 56.9 192.8
04/09 18:20 11 51 5.11 1.3 20 35 1007.5 0 12.3 21.0 27.4 71.5 56.9 192.7
04/09 18:10 10.8 51 5.04 1.1 20 33 1007.3 0 12.1 21.0 27.2 71.0 56.2 190.3
04/09 18:00 10.9 51 5.07 1.2 20 30 1007.2 0 12.2 21.0 27.3 71.1 56.5 191.3
04/09 17:50 10.9 50 4.97 0.9 20 33 1007.1 0 12.0 20.8 27.0 70.2 55.3 187.1
04/09 17:40 10.9 50 4.97 0.9 22 35 1007 0 12.0 20.8 26.9 70.2 55.3 187.1
04/09 17:30 11 50 5.01 1 20 32 1007.1 0 12.0 20.9 27.1 70.5 55.7 188.5

Last Refresh: 05-Sep-2026 09:42:47

Bureau of Meteorology